Location: Cabeza Gorda
(40.0667°N, 4.9667°W)
Time: 18:51:00
(UTC+00:00)

SKYMED 2 - Pass Details

Date: 15 January 2026
Orbit: 621 x 624 km, 97.9° (Epoch: 11 February)

Event Time Altitude Azimuth Distance (km) Brightness Sun altitude
Rises 06:03:26 0° 184° (S) 2,889 7.1 -18.2°
Reaches altitude 10° 06:05:43 10° 192° (SSW) 1,987 6.2 -17.8°
Maximum altitude 06:09:47 39° 262° (W) 932 4.0 -17.0°
Enters shadow 06:11:22 29° 307° (NW) 1,157 4.4 -16.7°
